www.pogodaiklimat.ru

Погода и климат >> Архив погоды >> Россия >> Пермский край >> Кын


ПОГОДА в Кыне

  • Прогноз погоды в Кыне
  • Монитор погоды в Кыне

АРХИВ ПОГОДЫ в Кыне

Время (UTC), дата Ветер
(напр.,м/с)
 
Видим.   Явления Облачность Т
(С)
Тd
(С)
f
(%)
Тe
(С)
Тes
(С)
Комфортность P
(гПа)
Po
(гПа)
Тmin
(С)
Tmax
(С)
R
(мм)
R24
(мм)
S
(см)
18 17.06 СЗ 2 50 км {ливн. осадки} 3/3 600 м
[Sc diur, vesp]
+7.7 +6.2 90 +6 +6 1004.9 975.6
21 17.06 штиль 0 50 км 6/3 600 м
[Sc diur, vesp Ac trans Ci fib]
+6.1 +4.8 91 +5 +5 1006.4 976.8
00 18.06 З 1 50 км 3/0 2000 м
[Ac trans Ci fib]
+3.9 +3.2 95 +2 +2 1007.8 978.0
03 18.06 СЗ 3 50 км 4/3 600 м
[Sc Ac cast]
+9.9 +5.0 72 +8 +10 1008.6 979.4 +3.7 0.0
06 18.06 СЗ 5
{11}
50 км 9/8 600 м
[Sc diur, vesp Ac trans]
+11.1 +3.5 59 +9 +10 1009.2 980.0
09 18.06 СЗ 5
{10}
50 км 9/9 600 м
[Cu hum]
+15.2 +3.1 44 +14 +15 1008.7 979.9
12 18.06 СЗ 6 50 км 8/8 600 м
[Cu med, cong Ac lent]
+16.0 +4.2 45 +15 +15 1007.8 979.2
15 18.06 З 4
{10}
50 км {ливн. осадки} 8/3 600 м
[Sc diur, vesp Ac lent]
+16.5 +5.3 47 +16 +16 1007.4 979.1 +17.3 0.0
18 18.06 ЮЗ 3 50 км {ливн. осадки} 3/0 2000 м
[Ac cast]
+10.2 +5.5 73 +8 +8 1008.9 979.6
21 18.06 ЮЗ 2 50 км 3/0 2000 м
[Ac cast]
+9.4 +4.7 72 +8 +8 1009.3 979.9
00 19.06 ЮЗ 3 50 км 8/0 2000 м
[Ac As]
+10.4 +4.6 67 +9 +9 1009.2 979.9
03 19.06 ЮЗ 3 50 км 9/0 2000 м
[Ac lent]
+13.7 +6.5 62 +13 +14 1008.8 979.9 +9.4
06 19.06 З 4 50 км 9/8 600 м
[Sc Ac lent]
+17.8 +7.7 52 +18 +19 1008.2 979.7
09 19.06 З 3
{10}
50 км 9/3 600 м
[Cu hum Ac cast]
+19.6 +9.8 53 +21 +24 комфорт 1008.0 979.7
12 19.06 З 1 50 км гроза без осадков {ливн. осадки} 9/8 600 м
[Cb cap Ac cuf]
+18.3 +13.4 73 +20 +21 1007.0 979.0
15 19.06 ЮЗ 3 50 км в посл. час гроза 8/8 600 м
[Cb cap Ac cuf Ci ing]
+17.3 +13.0 76 +17 +17 1008.4 979.9 +17.5 0.0
18 19.06 ЮЗ 2 50 км туман на расстоянии {гроза} 8/3 600 м
[Sc diur, vesp Ac As Ci fib]
+14.4 +12.9 91 +14 +14 1009.1 980.3
21 19.06 ЮЗ 2 50 км туман на расстоянии 8/1 600 м
[Sc Ac lent Ci fib]
+11.6 +10.7 94 +10 +10 1009.9 980.8
00 20.06 Ю 1 500 м туман 10/0 2000 м
[Ac lent Ci]
+9.5 +8.9 96 +9 +9 1010.6 981.3
03 20.06 ЮЗ 2 50 км {туман} 10/3 600 м
[Sc Ac trans Ci]
+13.9 +12.4 91 +13 +15 1010.9 982.0 +9.2
06 20.06 ЮЗ 5-10
{10}
50 км {туман} 8/4 600 м
[Cu hum Ac cast Ci fib]
+21.4 +13.3 60 +24 +27 комфорт 1009.4 981.3
09 20.06 ЮЗ 6-10
{12}
50 км гроза без осадков 10/8 600 м
[Cb cap Ci]
+23.7 +10.3 43 +25 +26 комфорт 1008.6 980.7
12 20.06 ЮЗ 6-10
{14}
50 км {гроза, ливн. осадки} 9/5 600 м
[Cu med, cong Ci]
+24.3 +9.9 40 +25 +27 комфорт 1006.6 978.9
15 20.06 С 1
{15}
20 км гроза, ливневой дождь 10/10 600 м
[Cb calv]
+14.4 +13.1 92 +15 +15 1009.6 980.8 +21.4 4
18 20.06 СЗ 2
{10}
10 км слаб. ливневой дождь {гроза} 10/10 600 м
[Cb cap]
+14.3 +13.1 92 +14 +14 1010.2 981.4
21 20.06 СЗ 3 50 км туман на расстоянии {ливн. осадки} 3/0 2000 м
[Ac lent]
+11.7 +10.8 94 +10 +10 1010.7 981.6
00 21.06 З 2 50 км туман на расстоянии {ливн. осадки} 1/0 2000 м
[Ac lent]
+10.8 +9.9 94 +9 +9 1012.0 982.7
03 21.06 СЗ 3 50 км ясно +14.8 +11.2 79 +14 +18 1012.7 983.9 +10.6 8
06 21.06 СЗ 6-10
{12}
50 км 9/6 600 м
[Cu hum Ci fib]
+15.3 +8.5 64 +14 +16 1013.9 985.2
09 21.06 СЗ 7
{11}
50 км 10/3 600 м
[Sc diur, vesp As trans]
+15.8 +6.7 55 +14 +15 1015.0 986.2
12 21.06 СЗ 7-11
{13}
50 км 8/8 600 м
[Cu hum]
+16.2 +4.7 46 +15 +15 1015.7 986.9
15 21.06 С 3
{13}
50 км 8/8 600 м
[Cb cap]
+14.9 +3.4 46 +14 +15 1016.7 987.8 +16.7
18 21.06 ЮЗ 2 50 км 3/1 600 м
[Sc diur, vesp As trans]
+8.3 +5.1 80 +6 +6 1018.5 988.8
21 21.06 ЮЗ 3 50 км 4/0 2000 м
[As op Ci sp]
+4.3 +3.5 95 0 0 1019.4 989.2
00 22.06 ЮЗ 1 50 км туман на расстоянии 8/0 2000 м
[Ac cast Ci sp]
+3.6 +2.8 94 +2 +2 1020.4 990.1
03 22.06 штиль 0 50 км 9/0 2000 м
[Ac cast Ci fib]
+9.7 +7.2 84 +9 +12 1020.3 990.8 +3.2
06 22.06 СЗ 4 50 км 9/0 2000 м
[Ac As Ci fib]
+18.3 +8.2 52 +18 +23 1018.7 990.1
09 22.06 З 4
{10}
50 км 10/6 600 м
[Cu hum Ac trans Ci fib]
+21.0 +7.6 42 +22 +24 комфорт 1017.6 989.2
12 22.06 З 5
{10}
50 км 5/1 600 м
[Cu hum Ac lent Ci fib]
+22.2 +6.4 36 +23 +26 комфорт 1015.9 987.7
15 22.06 ЮЗ 3
{11}
50 км 9/4 600 м
[Sc Ac cast Ci fib]
+21.2 +8.2 43 +22 +23 комфорт 1014.2 985.9 +22.6
18 22.06 ЮЗ 2 50 км 8/5 600 м
[Sc Ac cast]
+17.7 +9.6 59 +18 +18 1013.3 984.8
21 22.06 ЮЗ 3 50 км 10/10 600 м
[Sc]
+17.3 +14.5 84 +17 +17 1012.5 984.0
00 23.06 ЮЗ 2 50 км слаб. дождь 10/10 600 м
[Sc]
+16.4 +15.3 93 +16 +16 1011.4 982.8
03 23.06 ЮЗ 3 50 км {дождь} 10/0 2000 м
[Ac und]
+17.5 +15.8 90 +17 +19 1009.8 981.4 +16.3 0.8
06 23.06 ЮЗ 4 50 км {дождь} 10/6 600 м
[Cu hum As trans Ci sp]
+20.6 +16.2 76 +24 +26 комфорт 1008.4 980.3
09 23.06 СЗ 3
{10}
50 км слаб. ливневой дождь 10/8 600 м
[Cb cap As trans]
+21.3 +17.6 79 +25 +26 комфорт 1007.7 979.7
12 23.06 СЗ 5 50 км в посл. час гроза {ливн. осадки} 8/8 600 м
[Cb cap]
+22.5 +19.1 81 +28 +29 душно 1008.2 980.3
15 23.06 ЮЗ 3 50 км {ливн. осадки} 8/6 600 м
[Sc diur, vesp Ac cuf]
+21.3 +18.1 82 +26 +26 душно 1008.9 980.3 +23.9 12
18 23.06 З 3 50 км {гроза, ливн. осадки} 4/3 600 м
[Sc diur, vesp Ac cuf]
+18.8 +16.9 89 +20 +20 1010.3 982.0
21 23.06 З 3 50 км 4/3 600 м
[Sc Ci fib]
+16.2 +15.0 93 +16 +16 1011.0 982.4
00 24.06 Ю 1 10 км туман на расстоянии 8/8 600 м
[Sc]
+14.7 +13.8 94 +15 +15 1012.2 983.3
03 24.06 СЗ 3 50 км {туман} 4/0 2000 м
[Ac cast Ci sp]
+19.6 +13.6 68 +21 +24 комфорт 1012.7 984.4 +14.4
06 24.06 СЗ 3 50 км {туман} 6/4 600 м
[Cu hum Ac cast]
+22.4 +10.8 48 +24 +29 комфорт 1012.7 984.6
09 24.06 СЗ 5 50 км 8/6 600 м
[Cu hum Ac lent]
+22.9 +9.5 43 +25 +26 комфорт 1012.7 984.6
12 24.06 СЗ 4 50 км 8/5 600 м
[Cu hum Ci sp]
+22.4 +8.5 41 +24 +26 комфорт 1012.9 984.8
15 24.06 СЗ 4 50 км 8/4 600 м
[Cu hum Ci sp]
+21.5 +7.1 39 +22 +23 комфорт 1013.3 985.1 +23.9

 

Местоположение метеостанции Кын (Пермский край, Россия): широта 57.83 долгота 58.65 высота над уровнем моря 245 м.

В архиве по умолчанию представлена погода в Кыне за последнюю неделю. Архивные данные за месяц целиком и за предыдущие месяцы, начиная с января 2011 года, Вы можете получить, выбрав интересующий диапазон дат из раскрывающегося списка и нажав кнопку "Ввод!".


*Определитесь, кто Вы:
робот инопланетянин человек

Внимание! Время в таблицах - всемирное. Для получения местного времени необходимо прибавить поправку, которая равна 5 ч.

Смотрите также архив погоды в соседних городах и на ближайших метеорологических станциях:

Погода в Висиме (Свердловская область, Россия) (55 км)
Погода в Шамарах (Свердловская область, Россия) (59 км)
Погода в Лысьве (Пермский край, Россия) (61 км)
Погода в Бисере (Пермский край, Россия) (78 км)
Погода в Нижнем Тагиле (Свердловская область, Россия) (84 км)
Погода в Кушве (Свердловская область, Россия) (85 км)
Погода в Невьянске (Свердловская область, Россия) (102 км)
Погода в Качканаре (Свердловская область, Россия) (108 км)
Погода в Бисерти (Свердловская область, Россия) (109 км)
Погода в Кунгуре (Пермский край, Россия) (112 км)

Пояснения к столбцам:

Ветер - указаны скорость ветра в м/с - средняя за 10 мин, порывы в срок и между сроками (в фигурных скобках) и направление, откуда дует ветер: С - северный, СВ - северо-восточный, В - восточный, ЮВ - юго-восточный, Ю - южный, ЮЗ - юго-западный, З - западный, СЗ - северо-западный.
Видимость - горизонтальная дальность видимости в метрах или километрах. При видимости от 1 до 10 км при отсутствии осадков обычно наблюдается дымка, при ухудшении видимости до 1 км и менее - туман. В сухую погоду видимость может ухудшаться дымом, пылью или мглою.
Явления - указаны атмосферные явления, наблюдавшиеся в срок или в последний час перед сроком; фигурными скобками обозначены явления, наблюдавшиеся между сроками (за 1-3 часа до срока); квадратными скобками обозначены град или гололедные отложения с указанием их диаметра в мм.
Облачность - указаны через наклонную черту общая и нижняя облачность в баллах и высота нижней границы облаков в метрах; квадратными скобками обозначены формы облаков: Ci - перистые, Cs - перисто-слоистые, Cc - перисто-кучевые, Ac - высококучевые, As - высокослоистые, Sc - слоисто-кучевые, Ns - слоисто-дождевые, Cu - кучевые, Cb - кучево-дождевые. Подробнее классификацию облаков см. в Атласе облаков (PDF).
T - Температура воздуха - температура, измеренная на высоте 2 м над землей.
Td - Температура точки росы - температура, при понижении до которой содержащийся в воздухе водяной пар достигнет насыщения.
f - Относительная влажность воздуха - влажноcть воздуха, измеренная на высоте 2 м над землей.
Te - Эффективная температура - температура, которую ощущает одетый по сезону человек в тени. Характеристика душности погоды. При расчете учитывается влияние влажности воздуха и скорости ветра на теплоощущения человека.
Tes - Эффективная температура на солнце - температура, которую ощущает человек, с поправкой на солнечный нагрев. Характеристика знойности погоды. Зависит от высоты солнца над горизонтом, облачности и скорости ветра. Ночью, в пасмурную погоду, а также при ветре 12 м/с и более поправка равна нулю.
P - Атмосферное давление - приведенное к уровню моря атмосферное давление.
Po - Атмосферное давление - измеренное на уровне метеостанции атмосферное давление.
Tmin - Минимальная температура - минимум температуры воздуха на высоте 2 м над землей.
Tmax - Максимальная температура - максимум температуры воздуха на высоте 2 м над землей.
R - Количество осадков - Количество выпавших осадков за период времени, мм. При наведении курсора мыши на число - период времени, за который выпало указанное количество осадков.
R24 - Количество осадков - Количество выпавших осадков за 24 часа, мм.
S - Снежный покров - Высота снежного покрова, см. При наведении курсора мыши на число - состояние снежного покрова и степень покрытия местности в баллах.